• In Belarus
  • List of Countries
  • For 7 days
  • Water Temperature
  • Satellite Maps
  • Weather Map
  • Weather Widgets
  • user-avatar
    Login

    Hourly Weather Lubango

    Today, 23 July, Monday

    Time Temperature Precipitation Wind Pressure Humidity
    00:00 +12°C° 0 mm 1 mps 610 mmHg 39%
    01:00 +12°C° 0 mm 1 mps 610 mmHg 38%
    02:00 +12°C° 0 mm 1 mps 610 mmHg 38%
    03:00 +11°C° 0 mm 1 mps 610 mmHg 38%
    04:00 +11°C° 0 mm 1 mps 609 mmHg 38%
    05:00 +10°C° 0 mm 2 mps 609 mmHg 39%
    06:00 +10°C° 0 mm 2 mps 610 mmHg 40%
    07:00 +10°C° 0 mm 2 mps 610 mmHg 40%
    08:00 +13°C° 0 mm 3 mps 611 mmHg 34%
    09:00 +18°C° 0 mm 3 mps 613 mmHg 28%
    10:00 +21°C° 0 mm 4 mps 614 mmHg 22%
    11:00 +24°C° 0 mm 3 mps 614 mmHg 19%
    12:00 +25°C° 0 mm 3 mps 614 mmHg 17%
    13:00 +27°C° 0 mm 3 mps 614 mmHg 14%
    14:00 +27°C° 0 mm 2 mps 614 mmHg 14%
    15:00 +27°C° 0 mm 2 mps 613 mmHg 13%
    16:00 +27°C° 0 mm 2 mps 613 mmHg 13%
    17:00 +24°C° 0 mm 2 mps 612 mmHg 17%
    18:00 +21°C° 0 mm 1 mps 611 mmHg 22%
    19:00 +16°C° 0 mm 1 mps 610 mmHg 27%
    20:00 +16°C° 0 mm 1 mps 610 mmHg 28%
    21:00 +15°C° 0 mm 1 mps 610 mmHg 30%
    22:00 +14°C° 0 mm 1 mps 611 mmHg 31%
    23:00 +14°C° 0 mm 1 mps 610 mmHg 31%

    Tomorrow, 24 July, Tuesday

    Time Temperature Precipitation Wind Pressure Humidity
    00:00 +13°C° 0 mm 2 mps 610 mmHg 31%
    01:00 +13°C° 0 mm 2 mps 610 mmHg 31%
    02:00 +12°C° 0 mm 2 mps 610 mmHg 32%
    03:00 +12°C° 0 mm 2 mps 609 mmHg 34%
    04:00 +10°C° 0 mm 2 mps 609 mmHg 35%
    05:00 +10°C° 0 mm 2 mps 609 mmHg 36%
    06:00 +10°C° 0 mm 2 mps 609 mmHg 38%
    07:00 +10°C° 0 mm 3 mps 609 mmHg 39%
    08:00 +14°C° 0 mm 3 mps 611 mmHg 33%
    09:00 +18°C° 0 mm 4 mps 613 mmHg 28%
    10:00 +21°C° 0 mm 4 mps 614 mmHg 22%
    11:00 +23°C° 0 mm 4 mps 614 mmHg 20%
    12:00 +25°C° 0 mm 3 mps 614 mmHg 17%
    13:00 +27°C° 0 mm 3 mps 614 mmHg 15%
    14:00 +27°C° 0 mm 2 mps 614 mmHg 14%
    15:00 +27°C° 0 mm 2 mps 613 mmHg 13%
    16:00 +27°C° 0 mm 1 mps 613 mmHg 13%
    17:00 +24°C° 0 mm 1 mps 612 mmHg 16%
    18:00 +21°C° 0 mm 1 mps 611 mmHg 20%
    19:00 +18°C° 0 mm 1 mps 610 mmHg 24%
    20:00 +16°C° 0 mm 1 mps 610 mmHg 25%
    21:00 +15°C° 0 mm 1 mps 610 mmHg 26%
    22:00 +15°C° 0 mm 1 mps 610 mmHg 27%
    23:00 +14°C° 0 mm 2 mps 610 mmHg 29%

    Day after tomorrow, 25 July, Wednesday

    Time Temperature Precipitation Wind Pressure Humidity
    00:00 +14°C° 0 mm 2 mps 610 mmHg 30%
    01:00 +13°C° 0 mm 2 mps 610 mmHg 32%
    02:00 +13°C° 0 mm 2 mps 609 mmHg 34%
    03:00 +12°C° 0 mm 2 mps 609 mmHg 35%
    04:00 +12°C° 0 mm 2 mps 609 mmHg 37%
    05:00 +11°C° 0 mm 3 mps 609 mmHg 36%
    06:00 +11°C° 0 mm 3 mps 609 mmHg 35%
    07:00 +11°C° 0 mm 3 mps 609 mmHg 34%
    08:00 +14°C° 0 mm 3 mps 611 mmHg 28%
    09:00 +18°C° 0 mm 4 mps 612 mmHg 23%
    10:00 +21°C° 0 mm 4 mps 613 mmHg 17%
    11:00 +23°C° 0 mm 4 mps 613 mmHg 16%
    12:00 +26°C° 0 mm 3 mps 613 mmHg 14%
    13:00 +27°C° 0 mm 2 mps 614 mmHg 12%
    14:00 +28°C° 0 mm 2 mps 613 mmHg 12%
    15:00 +28°C° 0 mm 2 mps 613 mmHg 11%
    16:00 +28°C° 0 mm 2 mps 612 mmHg 11%
    17:00 +25°C° 0 mm 1 mps 612 mmHg 15%
    18:00 +21°C° 0 mm 1 mps 611 mmHg 19%
    19:00 +18°C° 0 mm 1 mps 610 mmHg 23%
    20:00 +16°C° 0 mm 1 mps 610 mmHg 26%
    21:00 +15°C° 0 mm 1 mps 610 mmHg 28%
    22:00 +14°C° 0 mm 1 mps 610 mmHg 31%
    23:00 +13°C° 0 mm 1 mps 610 mmHg 32%

    26 July, Thursday

    Time Temperature Precipitation Wind Pressure Humidity
    00:00 +13°C° 0 mm 1 mps 609 mmHg 32%
    01:00 +13°C° 0 mm 1 mps 609 mmHg 33%
    02:00 +12°C° 0 mm 1 mps 609 mmHg 32%
    03:00 +12°C° 0 mm 1 mps 609 mmHg 32%
    04:00 +12°C° 0 mm 1 mps 608 mmHg 32%
    05:00 +12°C° 0 mm 1 mps 609 mmHg 32%
    06:00 +12°C° 0 mm 1 mps 609 mmHg 31%
    07:00 +12°C° 0 mm 1 mps 609 mmHg 31%
    08:00 +16°C° 0 mm 1 mps 611 mmHg 26%
    09:00 +19°C° 0 mm 2 mps 613 mmHg 20%
    10:00 +24°C° 0 mm 2 mps 614 mmHg 15%
    11:00 +25°C° 0 mm 2 mps 614 mmHg 14%
    12:00 +27°C° 0 mm 2 mps 614 mmHg 13%
    13:00 +28°C° 0 mm 2 mps 614 mmHg 12%
    14:00 +27°C° 0 mm 2 mps 613 mmHg 13%
    15:00 +27°C° 0 mm 3 mps 613 mmHg 15%
    16:00 +26°C° 0 mm 3 mps 612 mmHg 17%
    17:00 +21°C° 0 mm 3 mps 611 mmHg 28%
    18:00 +18°C° 0 mm 2 mps 611 mmHg 39%
    19:00 +15°C° 0 mm 2 mps 610 mmHg 50%
    20:00 +14°C° 0 mm 1 mps 610 mmHg 56%
    21:00 +13°C° 0 mm 1 mps 610 mmHg 63%
    22:00 +12°C° 0 mm 1 mps 610 mmHg 69%
    23:00 +11°C° 0 mm 1 mps 610 mmHg 69%

    27 July, Friday

    Time Temperature Precipitation Wind Pressure Humidity
    00:00 +11°C° 0 mm 1 mps 609 mmHg 70%
    01:00 +11°C° 0 mm 1 mps 609 mmHg 70%
    02:00 +11°C° 0 mm 1 mps 609 mmHg 69%
    03:00 +10°C° 0 mm 1 mps 609 mmHg 68%
    04:00 +10°C° 0 mm 1 mps 608 mmHg 67%
    05:00 +10°C° 0 mm 1 mps 609 mmHg 62%
    06:00 +11°C° 0 mm 1 mps 609 mmHg 58%
    07:00 +11°C° 0 mm 1 mps 609 mmHg 54%
    08:00 +15°C° 0 mm 1 mps 611 mmHg 43%
    09:00 +20°C° 0 mm 1 mps 613 mmHg 31%
    10:00 +24°C° 0 mm 1 mps 615 mmHg 19%
    11:00 +25°C° 0 mm 1 mps 614 mmHg 17%
    12:00 +27°C° 0 mm 1 mps 614 mmHg 15%
    13:00 +28°C° 0 mm 2 mps 614 mmHg 13%
    14:00 +27°C° 0 mm 2 mps 613 mmHg 14%
    15:00 +27°C° 0 mm 3 mps 613 mmHg 15%
    16:00 +26°C° 0 mm 3 mps 612 mmHg 17%
    17:00 +22°C° 0 mm 3 mps 611 mmHg 26%
    18:00 +18°C° 0 mm 2 mps 610 mmHg 35%
    19:00 +15°C° 0 mm 2 mps 610 mmHg 44%
    20:00 +14°C° 0 mm 1 mps 610 mmHg 48%
    21:00 +13°C° 0 mm 1 mps 610 mmHg 53%
    22:00 +12°C° 0 mm 1 mps 610 mmHg 58%
    23:00 +12°C° 0 mm 1 mps 610 mmHg 56%

    28 July, Saturday

    Time Temperature Precipitation Wind Pressure Humidity
    00:00 +12°C° 0 mm 1 mps 609 mmHg 55%
    01:00 +12°C° 0 mm 1 mps 609 mmHg 54%
    02:00 +12°C° 0 mm 1 mps 609 mmHg 52%
    03:00 +11°C° 0 mm 1 mps 609 mmHg 49%
    04:00 +11°C° 0 mm 1 mps 608 mmHg 47%
    05:00 +11°C° 0 mm 1 mps 609 mmHg 44%
    06:00 +12°C° 0 mm 1 mps 609 mmHg 40%
    07:00 +12°C° 0 mm 1 mps 610 mmHg 37%
    08:00 +16°C° 0 mm 1 mps 611 mmHg 30%
    09:00 +20°C° 0 mm 2 mps 613 mmHg 22%
    10:00 +25°C° 0 mm 2 mps 615 mmHg 15%
    11:00 +26°C° 0 mm 2 mps 614 mmHg 14%
    12:00 +27°C° 0 mm 2 mps 614 mmHg 13%
    13:00 +29°C° 0 mm 2 mps 614 mmHg 11%
    14:00 +28°C° 0 mm 2 mps 613 mmHg 13%
    15:00 +27°C° 0 mm 2 mps 613 mmHg 14%
    16:00 +26°C° 0 mm 3 mps 612 mmHg 15%
    17:00 +23°C° 0 mm 2 mps 611 mmHg 23%
    18:00 +19°C° 0 mm 2 mps 610 mmHg 31%
    19:00 +15°C° 0 mm 1 mps 609 mmHg 39%
    20:00 +14°C° 0 mm 1 mps 609 mmHg 42%
    21:00 +13°C° 0 mm 1 mps 609 mmHg 46%
    22:00 +12°C° 0 mm 1 mps 610 mmHg 49%
    23:00 +12°C° 0 mm 1 mps 609 mmHg 48%
    Show more